{"data":{"norad_id":58206,"epoch":"2026-05-24T23:40:12.475200Z","epoch_age_seconds":90419,"freshness":"FRESH","line1":"1 58206U 23170A   26144.98625550  .00000506  00000+0  27915-4 0  9999","line2":"2 58206  43.0060 123.7118 0001356 259.1453 100.9246 15.27579425141963","mean_motion":15.27579425,"eccentricity":0.0001356,"inclination_deg":43.006,"raan_deg":123.7118,"arg_perigee_deg":259.1453,"mean_anomaly_deg":100.9246,"bstar":2.7915e-5,"rev_number":14196,"period_min":94.266784196835,"perigee_km":482.12044072895,"apogee_km":483.98119486514,"semimajor_km":6861.187817797,"source":"CELESTRAK","updated_at":"2026-05-25T13:38:18.573838Z"}}